Location: Delettes
(50.6178°N, 2.2123°E)
Time: 16:56:46
(UTC+00:00)

STARLINK-1050 - Pass Details

Date: 27 February 2020
Orbit: 548 x 551 km, 53.0° (Epoch: 30 March)

Event Time Altitude Azimuth Distance (km) Brightness Sun altitude
Rises 18:44:32 0° 228° (SW) 2,707 7.9 -12.9°
Reaches altitude 10° 18:46:48 10° 223° (SW) 1,817 6.8 -13.2°
Maximum altitude 18:50:47 48° 148° (SSE) 721 3.9 -13.9°
Enters shadow 18:52:55 24° 86° (E) 1,151 4.6 -14.2°
